Lubbock, TX

12:28 AM CDT on March 23, 2017 (GMT -0500)
Lubbock International

Weather History for KLBB - January, 2014

Change the Weather History Date:

Thursday, January 23, 2014

  Actual Average Record
Temperature  
Mean Temperature 24 °F 41 °F  
Max Temperature 36 °F 55 °F 83 °F (1972)
Min Temperature 11 °F 27 °F 3 °F (1983)
Degree Days  
Heating Degree Days 41 24  
Month to date heating degree days 565 576  
Since 1 July heating degree days 2022 1974  
Cooling Degree Days 0 0  
Month to date cooling degree days 0 0  
Year to date cooling degree days 0 0  
Moisture  
Dew Point 2 °F    
Average Humidity 44    
Maximum Humidity 68    
Minimum Humidity 20    
Precipitation  
Precipitation 0.00 in 0.03 in 0.62 in (1927)
Month to date precipitation 0.00 0.45  
Year to date precipitation 0.00 0.45  
Snow  
Snow 0.00 in 0.10 in 0.20 in (1915)
Month to date snowfall 0.0 1.9  
Since 1 July snowfall 2.4 5.1  
Snow Depth 0.00 in    
Sea Level Pressure  
Sea Level Pressure 30.53 in    
Wind  
Wind Speed 17 mph (NE)    
Max Wind Speed 28 mph    
Max Gust Speed 33 mph    
Visibility 10 miles    
Events      
T = Trace of Precipitation, MM = Missing Value Source: NWS Daily Summary

Daily Weather History Graph

Daily Weather History Graph

Search for Another Location

Airport or City:

Trip Planner

Search our weather history database for the weather conditions in past years. The results will help you decide how hot, cold, wet, or windy it might be!

Date:

Astronomy

Jan. 23, 2014 Rise Set
Actual Time 7:48 AM CST 6:09 PM CST
Civil Twilight 7:22 AM CST 6:36 PM CST
Nautical Twilight 6:52 AM CST 7:06 PM CST
Astronomical Twilight 6:22 AM CST 7:36 PM CST
Moon 12:22 AM CST 11:47 AM CST
Length of Visible Light 11h 14m
Length of Day
10h 20m
Waning Gibbous, 55% of the Moon is Illuminated
Jan 23
Waning Gibbous
Jan 23
Last Quarter
Jan 30
New
Feb 6
First Quarter
Feb 14
Full

Hourly Weather History & Observations

Time (CST) Temp. Windchill Dew Point Humidity Pressure Visibility Wind Dir Wind Speed Gust Speed Precip Events Conditions
12:53 AM 35.1 °F 23.8 °F 19.9 °F 54% 30.14 in 10.0 mi ENE 20.7 mph 25.3 mph N/A   Mostly Cloudy
1:53 AM 33.1 °F 22.6 °F 21.0 °F 61% 30.17 in 10.0 mi ENE 16.1 mph - N/A   Overcast
2:53 AM 32.0 °F 20.5 °F 19.9 °F 61% 30.17 in 10.0 mi East 18.4 mph 26.5 mph N/A   Mostly Cloudy
3:53 AM 32.0 °F 20.5 °F 18.0 °F 56% 30.21 in 10.0 mi ENE 18.4 mph 25.3 mph N/A   Mostly Cloudy
4:53 AM 30.0 °F 17.9 °F 17.1 °F 59% 30.25 in 10.0 mi ENE 18.4 mph - N/A   Mostly Cloudy
5:53 AM 27.0 °F 12.8 °F 16.0 °F 63% 30.29 in 10.0 mi ENE 21.9 mph 26.5 mph N/A   Scattered Clouds
6:53 AM 25.0 °F 10.2 °F 14.0 °F 63% 30.35 in 10.0 mi NE 21.9 mph 28.8 mph N/A   Scattered Clouds
7:53 AM 23.0 °F 7.2 °F 14.0 °F 68% 30.41 in 10.0 mi NE 23.0 mph 31.1 mph N/A   Overcast
8:53 AM 21.9 °F 6.5 °F 10.0 °F 60% 30.47 in 10.0 mi NE 20.7 mph 31.1 mph N/A   Overcast
9:53 AM 21.9 °F 5.5 °F 3.9 °F 46% 30.53 in 10.0 mi NE 24.2 mph 31.1 mph N/A   Overcast
10:53 AM 21.0 °F 5.4 °F -5.1 °F 32% 30.60 in 10.0 mi NE 20.7 mph 28.8 mph N/A   Overcast
11:53 AM 21.0 °F 5.4 °F -6.0 °F 30% 30.62 in 10.0 mi NE 20.7 mph 25.3 mph N/A   Overcast
12:53 PM 21.0 °F 5.4 °F -11.0 °F 24% 30.61 in 10.0 mi NE 20.7 mph 31.1 mph N/A   Overcast
1:53 PM 21.0 °F 4.6 °F -11.9 °F 23% 30.62 in 10.0 mi NNE 23.0 mph 27.6 mph N/A   Overcast
2:53 PM 21.0 °F 5.4 °F -15.0 °F 20% 30.62 in 10.0 mi NE 20.7 mph 26.5 mph N/A   Overcast
3:53 PM 21.9 °F 7.8 °F -13.0 °F 21% 30.63 in 10.0 mi NNE 17.3 mph 23.0 mph N/A   Overcast
4:53 PM 21.9 °F 7.3 °F -15.0 °F 19% 30.64 in 10.0 mi NNE 18.4 mph 23.0 mph N/A   Mostly Cloudy
5:53 PM 21.0 °F 5.7 °F -13.0 °F 22% 30.66 in 10.0 mi NE 19.6 mph 25.3 mph N/A   Mostly Cloudy
6:53 PM 19.0 °F 6.1 °F -9.0 °F 29% 30.69 in 10.0 mi NE 12.7 mph - N/A   Mostly Cloudy
7:53 PM 17.1 °F 3.6 °F 1.0 °F 50% 30.73 in 10.0 mi NNE 12.7 mph - N/A   Mostly Cloudy
8:53 PM 15.1 °F 5.2 °F 1.0 °F 54% 30.75 in 10.0 mi NE 6.9 mph - N/A   Scattered Clouds
9:53 PM 14.0 °F 2.0 °F 1.9 °F 59% 30.76 in 10.0 mi NNE 9.2 mph - N/A   Partly Cloudy
10:53 PM 12.9 °F 3.8 °F 1.9 °F 62% 30.77 in 10.0 mi North 5.8 mph - N/A   Partly Cloudy
11:53 PM 10.9 °F 2.9 °F 1.0 °F 64% 30.78 in 10.0 mi NNW 4.6 mph - N/A   Partly Cloudy